Weather History for Henderson, NV

Change the Weather History Date:

Tuesday, March 4, 2014

  Actual Average (KLAS) Record (KLAS)
Temperature  
Mean Temperature 63 °F 57 °F  
Max Temperature 72 °F 67 °F 84 °F (1972)
Min Temperature 54 °F 47 °F 25 °F (1966)
Degree Days  
Heating Degree Days 2 8  
Month to date heating degree days 34  
Since 1 July heating degree days 1725  
Cooling Degree Days 0 0  
Month to date cooling degree days 0  
Year to date cooling degree days 1  
Growing Degree Days 13 (Base 50)    
Moisture  
Dew Point 37 °F    
Average Humidity 43    
Maximum Humidity 62    
Minimum Humidity 24    
Precipitation  
Precipitation 0.00 in 0.02 in 0.72 in (1978)
Month to date precipitation 0.09  
Year to date precipitation 1.39  
Snow  
Snow 0.00 in 0.00 in 0.00 in (2013)
Month to date snowfall 0.0  
Since 1 July snowfall 0.3  
Snow Depth -    
Sea Level Pressure  
Sea Level Pressure 29.97 in    
Wind  
Wind Speed 7 mph (WSW)    
Max Wind Speed 16 mph    
Max Gust Speed 23 mph    
Visibility 10 miles    
Events      
T = Trace of Precipitation, MM = Missing Value Source: NWS Daily Summary

Daily Weather History Graph

Daily Weather History Graph

Search for Another Location

Airport:

Trip Planner

Search our weather history database for the weather conditions in past years. The results will help you decide how hot, cold, wet, or windy it might be!

Date:

Astronomy

Mar. 04, 2014 Rise Set
Actual Time 6:06 AM PST 5:38 PM PST
Civil Twilight 5:40 AM PST 6:04 PM PST
Nautical Twilight 5:11 AM PST 6:33 PM PST
Astronomical Twilight 4:41 AM PST 7:03 PM PST
Moon 8:03 AM PST (3/4) 9:41 PM PST (3/4)
Length of Visible Light 12h 23m
Length of Day
11h 31m
Waxing Crescent, 15% of the Moon is Illuminated
Mar 4
Waxing Crescent
Mar 8
First Quarter
Mar 16
Full
Mar 23
Last Quarter
Mar 30
New

Hourly Weather History & Observations

Time (PST) Temp. Dew Point Humidity Pressure Visibility Wind Dir Wind Speed Gust Speed Precip Events Conditions
12:56 AM 54.9 °F 39.9 °F 57% 30.01 in 10.0 mi SSW 10.4 mph - N/A   Clear
1:56 AM 54.0 °F 41.0 °F 62% 29.98 in 10.0 mi South 6.9 mph - N/A   Clear
2:56 AM 56.8 °F 39.9 °F 53% 29.94 in 10.0 mi SSW 9.2 mph - N/A   Clear
3:56 AM 56.8 °F 39.9 °F 53% 29.92 in 10.0 mi South 6.9 mph - N/A   Clear
4:56 AM 54.9 °F 41.0 °F 60% 29.92 in 10.0 mi SSW 11.5 mph - N/A   Clear
5:56 AM 54.9 °F 41.0 °F 60% 29.92 in 10.0 mi West 9.2 mph - N/A   Clear
6:56 AM 54.0 °F 41.0 °F 62% 29.95 in 10.0 mi Calm Calm - N/A   Clear
7:56 AM 56.8 °F 39.9 °F 53% 29.96 in 10.0 mi Calm Calm - N/A   Clear
8:56 AM 59.9 °F 37.9 °F 44% 29.96 in 10.0 mi Calm Calm - N/A   Clear
9:56 AM 63.0 °F 38.8 °F 41% 29.97 in 10.0 mi NNW 8.1 mph - N/A   Clear
10:56 AM 63.9 °F 37.9 °F 38% 29.96 in 10.0 mi WNW 4.6 mph - N/A   Clear
11:56 AM 64.9 °F 36.9 °F 35% 29.95 in 10.0 mi SSW 5.8 mph - N/A   Clear
12:56 PM 66.9 °F 36.9 °F 33% 29.94 in 10.0 mi Variable 6.9 mph - N/A   Partly Cloudy
1:56 PM 72.0 °F 34.9 °F 26% 29.93 in 10.0 mi NNW 16.1 mph 23.0 mph N/A   Partly Cloudy
2:56 PM 72.0 °F 34.0 °F 25% 29.92 in 10.0 mi North 15.0 mph - N/A   Clear
3:56 PM 72.0 °F 32.9 °F 24% 29.92 in 10.0 mi NNE 9.2 mph 21.9 mph N/A   Clear
4:56 PM 70.9 °F 34.9 °F 27% 29.93 in 10.0 mi ENE 9.2 mph - N/A   Clear
5:56 PM 66.9 °F 34.9 °F 31% 29.96 in 10.0 mi Calm Calm - N/A   Clear
6:56 PM 64.9 °F 36.0 °F 34% 29.98 in 10.0 mi NNE 4.6 mph - N/A   Clear
7:56 PM 59.9 °F 37.9 °F 44% 30.01 in 10.0 mi Calm Calm - N/A   Clear
8:56 PM 56.8 °F 37.9 °F 49% 30.03 in 10.0 mi South 3.5 mph - N/A   Clear
9:56 PM 55.9 °F 34.9 °F 45% 30.04 in 10.0 mi Calm Calm - N/A   Clear
10:56 PM 56.8 °F 32.9 °F 40% 30.05 in 10.0 mi Calm Calm - N/A   Clear
11:56 PM 56.8 °F 34.9 °F 44% 30.06 in 10.0 mi Calm Calm - N/A   Clear